This is the latest recevied weather packets stored in our database for station/object WY7ATH-2. If no packets are shown the sender has not sent any weather packets the latest 10 day(s).
| Time | Temp. | Humidity | Pressure | Rain* | Wind** | Luminosity | Snow |
|---|---|---|---|---|---|---|---|
| 1788089002 | 14.44° C | - | - | 0 mm | 0 m/s | - | - |
| 1788088405 | 14.44° C | - | - | 0 mm | 7.6 m/s, 266° | - | - |
| 1788087808 | 15° C | - | - | 0 mm | 8.94 m/s, 232° | - | - |
| 1788087215 | 15° C | - | - | 0 mm | 7.15 m/s, 246° | - | - |
| 1788086611 | 15° C | - | - | 0 mm | 4.92 m/s, 269° | - | - |
| 1788086075 | 15.56° C | - | - | 0 mm | 8.05 m/s, 232° | - | - |
| 1788086014 | 15.56° C | - | - | 0 mm | 8.05 m/s, 232° | - | - |
| 1788085417 | 15.56° C | - | - | 0 mm | 11.62 m/s, 232° | - | - |
| 1788084821 | 15.56° C | - | - | 0 mm | 12.07 m/s, 236° | - | - |
| 1788083655 | 15.56° C | - | - | 0 mm | 8.49 m/s, 183° | - | - |
| 1788083622 | 15.56° C | - | - | 0 mm | 8.49 m/s, 183° | - | - |
| 1788083026 | 15.56° C | - | - | 0 mm | 4.92 m/s, 193° | - | - |
| 1788082469 | 15.56° C | - | - | 0 mm | 4.92 m/s, 249° | - | - |
| 1788082429 | 15.56° C | - | - | 0 mm | 4.92 m/s, 249° | - | - |
| 1788081832 | 15.56° C | - | - | 0 mm | 5.81 m/s, 242° | - | - |
| 1788081459 | 15.56° C | - | - | 0 mm | 4.92 m/s, 205° | - | - |
| 1788081235 | 15.56° C | - | - | 0 mm | 4.92 m/s, 205° | - | - |
| 1788080742 | 15.56° C | - | - | 0 mm | 5.36 m/s, 276° | - | - |
| 1788080638 | 15.56° C | - | - | 0 mm | 5.36 m/s, 276° | - | - |
| 1788080037 | 15.56° C | - | - | 0 mm | 5.81 m/s, 191° | - | - |
| 1788079440 | 16.11° C | - | - | 0 mm | 6.26 m/s, 236° | - | - |
| 1788078246 | 16.11° C | - | - | 0 mm | 2.68 m/s, 215° | - | - |
| 1788076675 | 16.11° C | - | - | 0 mm | 9.83 m/s, 208° | - | - |
| 1788076453 | 16.11° C | - | - | 0 mm | 9.83 m/s, 208° | - | - |
| 1788074939 | 15.56° C | - | - | 0 mm | 9.39 m/s, 252° | - | - |
* Rain latest hour (hover to see other rain measurements)
** Current wind speed in m/s (hover to see current wind gust speed)